Weather in Albi

France     43°55′38″N   2°08′53″E
temp.,
°C
wind,
m/s
gust,
m/s
humid.,
%
clouds,
%
prec.,
mm/h
press.,
hPa
HPBL,
m
21 april, wed
wed2123:00+8ene228794 0.0 101444
02:00+6e229599 0.3 101535
05:00+5e229661 0.5 101534
08:00+7e2397100 2.1 1015113
11:00+11e3585100 1.1 1015452
14:00+14se457092 2.8 10141233
17:00+13ese357078 0.8 1014798
20:00+11ese37775 0.8 1014364
22 april, thu
thu2223:00+7e37955 0.0 1016180
02:00+6e49905 0.0 1016259
05:00+5e389322 0.0 1016205
08:00+6e398924 0.0 1017261
11:00+14ese585433 0.0 10171217
14:00+17ese56465 0.0 10161707
17:00+17ese56475 0.0 10161699
20:00+12se36650 0.0 1017144
23 april, fri
fri2323:00+7ene22794 0.0 102020
02:00+6ene33820 0.0 102046
05:00+5ene33830 0.0 102045
08:00+7ene35810 0.0 102097
11:00+16ese35550 0.0 1019700
14:00+21ese34384 0.0 10181944
17:00+21ese34382 0.0 10172056
20:00+15ese49543 0.0 1018293
24 april, sat
sat2423:00+8e35775 0.0 102095
02:00+7e3984100 0.0 1020162
05:00+7e497692 0.0 1020191
08:00+8e39775 0.0 1020209
11:00+18ese59446 0.0 10181087
14:00+21se5635100 0.0 10171587
17:00+20se563998 0.0 10171405
20:00+14ese4960100 0.0 1017333
25 april, sun
sun2523:00+10e366882 0.0 1018138
02:00+11e487099 0.0 1017253
05:00+9e498110 0.0 1016223
08:00+10e41178100 0.0 1016374
11:00+16ese5956100 0.0 1015774
14:00+18ese5749100 0.0 10141018
17:00+19ese71244100 0.0 10121143
20:00+15ese61452100 0.0 1010784